sat.trackr.live / text

‹ back to catalog

STARLINK-2629

NORAD 48686 · 2021-044BA

PAYLOAD ACTIVE UNKNOWN

§ Identity

Operator
Country
US
Launch date
2021-05-26
Launch site
AFETR
Launch vehicle
Mass (kg)
RCS (m²)

Purposes: comms

External: N2YO · Heavens-Above · Gunter

§ Orbital elements

Epoch: 2026-09-11T19:27:19.939680Z

Period
94.01 min
Inclination
53.1598°
Eccentricity
0.0001122
Mean motion
15.31714887 rev/d
Perigee alt
469.9 km
Apogee alt
471.5 km
Semi-major
6,848.8 km
B*
-1.1754e-4
RAAN
289.2137°
Arg perigee
94.1398°
Mean anomaly
265.9732°
Rev number
29,287

§ Raw data

STARLINK-26291 48686U 21044BA  26254.81064745 -.00004012  00000+0 -11754-3 0  99962 48686  53.1598 289.2137 0001122  94.1398 265.9732 15.31714887292874

JSON: /api/v1/satellites/48686 · /tle

For live sub-satellite position, see the globe view (requires WebGL).

§ Visibility from observer

Set your observer location to see the next 7 days of passes ≥ 10°. The values pass through the URL so the page stays shareable.

No JS? Fill the form by hand. The geolocation button needs JavaScript.